CDT,Max TemperatureF,Mean TemperatureF,Min TemperatureF,Max Dew PointF,MeanDew PointF,Min DewpointF,Max Humidity, Mean Humidity, Min Humidity, Max Sea Level PressureIn, Mean Sea Level PressureIn, Min Sea Level PressureIn, Max VisibilityMiles, Mean VisibilityMiles, Min VisibilityMiles, Max Wind SpeedMPH, Mean Wind SpeedMPH, Max Gust SpeedMPH,PrecipitationIn, CloudCover, Events, WindDirDegrees
2013-6-1,72,67,62,66,64,58,100,89,78,29.88,29.81,29.75,10,9,4,22,11,31,0.39,6,Rain-Thunderstorm,198
2013-6-2,67,62,56,61,58,55,97,85,73,30.02,29.94,29.83,10,10,4,17,9,21,0.03,7,Rain,310
2013-6-3,68,61,53,54,50,45,93,71,48,30.11,30.05,30.01,10,10,9,14,5,17,0.00,5,,33
2013-6-4,73,62,50,58,53,49,100,77,53,30.11,30.07,30.03,10,10,10,14,4,20,0.00,1,,119
2013-6-5,80,70,59,64,58,53,84,66,48,30.04,29.94,29.85,10,10,10,9,2,13,0.00,1,,124
2013-6-6,81,72,63,64,59,54,87,66,45,29.83,29.80,29.78,10,10,10,16,7,20,0.00,4,,360
2013-6-7,69,64,58,62,58,53,93,83,72,29.90,29.86,29.82,10,7,3,14,5,16,0.09,8,Rain,27
2013-6-8,77,66,54,61,55,51,86,65,43,29.98,29.94,29.90,10,10,7,9,3,14,0.00,3,,119
2013-6-9,80,71,61,68,60,56,90,68,45,29.98,29.89,29.80,10,9,4,17,8,23,0.06,5,Rain,167
2013-6-10,77,70,62,64,62,60,100,80,60,29.90,29.82,29.76,10,9,4,14,7,18,0.03,5,Rain,236
2013-6-11,83,71,59,73,66,58,93,77,60,29.97,29.91,29.84,10,10,9,20,6,29,T,0,,209
2013-6-12,91,84,77,74,72,70,79,68,56,29.92,29.80,29.66,10,10,10,23,10,31,0.00,1,,225
2013-6-13,83,73,62,71,61,51,90,63,36,29.99,29.84,29.66,10,10,10,26,13,35,0.00,4,,345
2013-6-14,82,68,54,61,55,52,86,61,36,30.10,30.03,29.97,10,10,10,12,6,17,0.00,0,,10
2013-6-15,81,72,62,68,63,58,84,69,54,30.09,30.01,29.90,10,9,1,35,7,47,0.74,3,Rain-Thunderstorm,228
2013-6-16,78,73,67,72,68,64,100,90,79,30.05,29.97,29.92,10,8,1,15,6,21,0.68,6,Rain,214
2013-6-17,86,76,66,72,69,65,100,78,55,29.97,29.93,29.87,10,6,0,16,3,24,0.00,0,Fog,191
2013-6-18,85,74,62,71,65,62,100,76,51,29.98,29.93,29.90,10,9,1,18,5,22,0.31,3,Rain-Thunderstorm,15
2013-6-19,82,71,59,68,64,58,97,78,58,30.08,30.04,29.98,10,10,7,10,4,13,0.00,1,,72
2013-6-20,85,76,66,68,66,63,93,72,51,30.15,30.11,30.07,10,9,6,12,6,16,0.00,1,,149
2013-6-21,88,79,69,71,67,64,84,68,51,30.13,30.09,29.99,10,10,10,17,8,24,T,1,Rain,170
2013-6-22,87,76,65,73,69,65,100,83,65,30.17,30.08,29.98,10,8,0,31,9,37,2.56,3,Fog-Rain-Thunderstorm,178
2013-6-23,80,73,66,74,68,65,100,85,69,30.10,30.05,29.99,10,8,1,21,9,32,0.57,2,Rain,173
2013-6-24,85,76,67,76,70,65,100,87,74,30.10,30.03,29.97,10,10,10,16,9,23,0.00,0,,177
2013-6-25,87,77,67,75,69,66,97,81,65,30.00,29.92,29.82,10,8,0,28,9,37,0.94,2,Fog-Rain-Thunderstorm,158
2013-6-26,78,73,67,75,71,64,100,94,87,29.97,29.81,29.72,10,8,1,22,7,31,1.48,6,Rain-Thunderstorm,158
2013-6-27,90,81,71,77,73,68,100,76,52,29.83,29.80,29.74,10,5,0,18,10,24,0.00,4,Fog,277
2013-6-28,86,76,66,68,64,58,90,67,43,29.78,29.70,29.65,10,10,10,24,11,30,0.02,2,,289
2013-6-29,78,72,65,66,64,62,100,84,68,29.70,29.64,29.61,10,8,1,21,8,24,0.49,5,Rain-Thunderstorm,312
2013-6-30,75,69,63,65,62,60,100,80,60,29.89,29.78,29.70,10,9,7,24,13,33,0.01,7,,10